Weather in Ishimskaya

Russia / Novosibirsk Oblast     54°43′38″N   75°54′02″E
temp.,
°C
wind,
m/s
gust,
m/s
humid.,
%
clouds,
%
prec.,
mm/h
press.,
hPa
HPBL,
m
17 june, thu
thu1701:00+18w338169 1.0 101129
04:00+17wnw38885 0.1 1011137
07:00+18wnw368749 0.1 1011146
10:00+23wnw356837 0.0 1010544
13:00+26wnw455040 0.0 10101902
16:00+27nw67442 0.0 10091921
19:00+27nw3648100 0.0 10081767
22:00+22sse336633 0.0 100737
18 june, fri
fri1801:00+19ssw48806 2.5 1006112
04:00+17ssw4582100 0.2 100477
07:00+18sw397989 0.2 1004185
10:00+22s356491 0.1 1003240
13:00+29ssw68416 0.1 10011230
16:00+32ssw69316 0.0 9983211
19:00+30sw4839100 0.0 995488
22:00+16nne1193100 10.4 99965
19 june, sat
sat1901:00+14wnw799481 11.3 999304
04:00+9nnw61093100 0.0 1000448
07:00+8nnw71195100 2.9 1000563
10:00+8n7119499 5.3 1002583
13:00+8nnw6989100 5.4 1002795
16:00+8nnw61093100 3.7 1003748
19:00+7nnw6992100 4.4 1003764
22:00+7nnw4894100 0.3 1003604
20 june, sun
sun2001:00+7nnw4695100 0.4 1002614
04:00+7n3695100 0.1 1001509
07:00+7nne3495100 0.1 1001434
10:00+8n2293100 0.4 1002262
13:00+9ne1189100 0.6 1003317
16:00+9sse2385100 0.7 1004492
19:00+10sse228197 0.9 1004549
22:00+8se228910 0.1 100424
21 june, mon
mon2101:00+7ssw119279 0.1 100410
04:00+6nw119496 0.0 100311
07:00+7nnw2291100 0.0 1003112
10:00+11n237623 0.0 1003675
13:00+13nw3464100 0.3 10031535
16:00+11nw458297 0.5 1004549
19:00+10nw478764 0.9 1005362
22:00+10nw599099 0.4 1006365